Grizzly Air Cargo 5288


KDEN
Denver International Airport
Denver, Colorado, US
CYEG
Edmonton International Airport
Edmonton, , CA

Activity Log

Date Flight Route Aircraft Duration
12/23/2019 GRZ5288 RIKKK4 FISAR KU12U GGW YEA CAMRA IGSOX2 B738 2h 31m
09/24/2019 GRZ524 RIKKK4 FISAR KU12U GGW YEA CAMRA IGSOX2 B738 2h 50m

Route Details

Aircraft Information
Primary: Boeing 737-800BCF
Backup: Boeing 727-200F
Route Data
Distance: 887nm
Sched. Duration: 2h 58m
Avg. Duration: 2h 41m (-18m)
Times Flown: 2
Recm'd Route: RIKKK4 FISAR KU12U GGW YEA CAMRA IGSOX2
Planned Altitude: 34,000ft
Origin Wx: KDEN 262129Z 12009KT 1 1/2SM -SN FEW011 BKN031 OVC037 M05/M08 A2974 RMK AO2 SFC VIS 3 P0000 T10501083
Dest. Wx: CYEG 262100Z 12012KT 20SM -SN DRSN OVC012 M17/M21 A2988 RMK SC8 SLP187
Notes:

Financial History
Total Freight: 54,912lbs
Average Load: 27,456lbs/flt
Fuel Used: 26,477lbs
Avg. Fuel Used: 13,239lbs/flt
Fuel Expense: $28,595
Avg. Fuel Expense: $14,298
Avg. Fuel Cost: $1.08/lbs
Total Gross Income: $81,639
Pilot Pay: $308
Total Expenses: $8,921
Total Revenue: $43,237
Average Revenue: $40,819.68